Theta_e
347 346 346 346 345 344 343 344 347 346 345 347 345 342 340 340 340 339 338 337 338 338 338 338 339 338 337 332 330 330 330 332 333 336 339 344 345 342 339 339 344 343 344
348 346 346 345 343 343 342 343 345 347 344 341 340 340 340 340 339 337 337 337 337 336 336 337 337 337 333 330 329 328 329 329 333 334 335 336 344 344 341 341 344 341 338
347 345 344 343 343 342 345 344 345 337 335 338 339 340 339 338 336 336 336 335 334 333 334 334 333 332 326 322 325 337 334 330 330 335 337 340 342 343 345 345 343 338 336
346 344 343 342 334 345 346 347 342 334 331 333 337 338 336 335 335 336 334 333 332 331 331 331 331 333 342 336 342 345 344 336 333 336 341 341 342 342 340 341 339 341 337
345 344 344 338 338 348 348 344 335 327 322 327 332 330 330 334 335 333 332 332 331 331 332 335 336 337 341 343 344 347 343 340 338 341 341 341 341 342 339 339 339 338 341
344 341 343 338 344 349 344 339 331 321 322 324 325 331 331 333 329 331 333 334 335 335 334 330 333 341 342 343 342 338 337 337 339 340 340 339 340 338 338 342 341 338 339
342 342 342 341 345 346 342 337 327 321 322 326 327 323 329 329 327 329 332 332 329 328 332 331 336 342 341 341 338 337 336 337 339 339 340 341 341 338 342 340 340 339 340
342 342 341 341 343 343 344 335 324 321 324 325 325 322 325 324 326 326 328 329 324 325 331 333 338 339 336 336 334 332 332 335 338 338 338 338 339 339 338 337 337 338 339
342 341 340 342 346 343 340 331 321 321 324 325 323 321 322 324 323 324 325 323 323 325 330 337 338 336 335 333 331 329 328 329 335 337 336 337 336 338 337 337 336 335 335
341 340 340 342 345 343 342 331 322 322 326 326 324 323 320 320 321 323 328 323 323 325 329 336 335 333 332 330 326 326 327 331 334 334 335 336 337 336 334 334 334 334 333
341 339 338 341 345 343 341 336 325 322 326 329 328 325 324 325 325 329 326 324 322 325 329 335 333 332 326 325 323 326 332 333 333 334 334 334 334 333 332 331 330 331 330
340 340 338 341 345 343 341 339 333 332 332 333 333 330 330 326 328 327 326 325 322 325 331 333 332 328 330 331 331 330 332 333 333 333 333 333 332 331 330 329 329 328 328
339 339 338 341 345 343 341 338 333 332 332 330 332 332 329 327 328 328 328 328 324 327 333 334 332 330 330 330 331 331 331 331 331 331 331 329 329 328 327 326 325 325 324
340 340 338 340 348 344 341 338 330 329 327 331 331 332 331 330 327 327 327 326 325 326 329 331 329 330 331 330 330 329 329 328 329 329 327 325 325 324 323 323 322 321 321
340 340 339 340 341 344 341 339 333 330 327 330 331 332 331 330 328 327 325 324 327 323 322 323 327 328 330 329 328 328 327 326 325 323 323 324 323 322 322 321 321 319 319
341 341 339 338 337 340 341 337 333 327 329 330 332 332 329 329 328 326 324 325 326 323 320 321 322 328 327 328 328 328 327 325 323 322 321 322 323 322 321 321 320 319 318
344 342 340 337 337 337 340 337 336 329 333 335 334 333 331 330 329 329 327 325 324 324 323 321 322 327 327 327 327 327 327 326 324 322 322 320 320 322 322 321 321 320 319
346 345 341 337 337 337 339 337 337 333 335 336 336 332 331 330 328 326 325 325 322 324 323 321 323 326 326 326 326 327 327 326 324 322 322 321 321 321 322 322 321 321 320
346 345 343 338 338 336 334 339 339 335 333 335 337 332 330 329 327 324 323 322 321 325 324 323 323 325 326 326 325 326 326 326 325 322 320 322 321 322 322 323 322 321 321
342 344 344 340 337 332 332 340 340 337 335 336 335 331 330 328 325 323 322 320 320 323 318 323 325 324 324 324 323 324 325 325 325 323 321 320 320 321 321 322 322 321 321
341 342 342 342 339 336 337 340 338 337 336 334 331 331 330 329 326 323 322 320 319 320 320 318 323 324 322 323 323 323 323 324 325 324 323 321 321 320 320 320 321 321 320
342 342 342 342 340 339 338 340 337 337 334 334 332 332 332 330 327 324 322 321 318 323 321 320 320 322 322 321 323 324 325 323 322 323 324 323 322 320 319 319 319 320 320
343 343 342 340 340 339 338 339 337 335 333 333 334 334 333 331 328 325 323 322 322 320 322 321 321 323 322 321 319 321 324 323 324 324 322 323 323 322 321 320 319 319 320
343 344 342 340 339 338 338 337 336 336 336 336 336 334 332 330 328 327 324 322 321 320 318 317 319 320 319 320 319 318 320 323 320 321 322 323 323 322 322 322 320 319 318
342 343 343 340 339 339 337 338 338 338 336 336 335 334 332 331 330 329 327 324 322 323 320 316 316 316 320 319 318 319 318 318 319 318 319 319 321 323 322 322 321 320 320
343 342 343 342 340 339 339 338 338 339 338 336 336 334 333 332 331 329 327 326 325 324 323 320 316 318 319 319 318 318 318 319 319 319 319 318 317 319 319 319 318 318 318
Wind_Speed
17 17 15 15 15 16 17 16 15 14 13 12 12 13 12 11 11 10 9 9 10 10 9 8 7 5 5 5 5 5 7 9 10 10 11 11 10 10 10 11 13 12 13
21 18 17 15 14 16 16 15 14 13 12 12 13 13 13 12 11 10 10 10 10 10 9 8 7 5 4 4 4 5 5 8 10 10 9 9 10 8 9 10 11 12 13
20 18 16 16 15 16 15 14 14 12 12 13 13 14 13 12 11 10 10 10 10 10 9 8 7 6 5 4 5 6 5 9 11 11 10 7 7 8 9 10 11 11 12
19 18 17 17 17 16 14 13 12 11 12 13 13 13 12 11 10 9 9 10 10 10 9 9 9 9 12 7 10 9 9 12 13 12 7 7 7 7 8 9 10 11 12
19 17 16 17 18 16 14 11 11 10 11 12 13 12 12 12 10 10 10 11 11 12 12 11 10 10 13 12 11 13 15 16 15 11 8 7 7 6 8 9 9 10 12
18 16 14 16 17 14 12 11 10 11 11 12 11 11 12 12 11 11 12 13 13 13 12 11 12 13 12 13 13 14 15 16 13 10 10 10 8 9 8 11 10 10 11
18 14 14 16 16 13 12 10 10 11 11 11 11 11 12 11 12 13 13 13 12 13 11 9 13 14 13 12 12 12 13 13 10 11 11 11 9 9 11 11 11 12 12
17 15 13 15 14 11 12 9 10 10 10 11 12 12 13 13 14 14 13 13 12 12 12 10 14 14 13 12 12 11 10 12 10 10 10 9 12 13 13 12 12 14 15
15 14 14 13 13 11 11 11 11 10 11 11 12 13 14 15 14 13 13 13 13 12 12 13 15 15 13 12 10 10 8 9 8 9 9 8 13 14 14 17 16 15 17
15 15 14 14 13 12 11 10 11 11 11 12 11 12 13 14 13 12 12 12 13 11 13 14 13 13 13 11 9 9 8 10 8 8 9 11 15 17 17 18 17 17 15
14 14 14 14 13 12 11 10 11 10 11 11 9 9 10 10 9 9 8 10 11 11 12 13 10 10 11 12 10 10 11 10 10 12 15 17 18 18 18 17 16 17 16
17 16 16 16 13 12 11 11 10 9 9 9 7 7 5 7 6 6 6 8 10 11 13 11 10 9 10 10 10 11 10 12 13 16 16 19 18 16 16 17 15 16 16
19 17 17 16 16 15 12 11 9 7 8 9 8 5 4 4 2 3 3 5 8 11 10 10 10 7 8 9 9 8 8 8 10 12 12 14 14 13 13 13 13 14 14
17 17 17 17 15 15 11 11 11 10 10 9 7 6 5 3 2 2 3 5 8 9 11 10 9 9 9 9 8 8 8 7 7 8 8 11 13 13 13 13 14 14 15
16 16 18 17 14 15 12 11 11 10 11 9 7 5 4 4 2 2 3 5 9 10 11 12 10 9 8 8 8 7 8 8 8 8 8 11 12 13 13 14 13 13 13
15 16 16 18 16 17 13 12 12 12 11 10 7 5 3 4 3 1 4 6 9 11 12 11 10 10 9 8 8 7 7 8 7 8 8 8 10 11 12 12 12 13 13
17 16 19 19 18 16 15 12 12 12 11 9 7 6 5 4 3 2 5 8 9 10 10 12 9 10 9 8 8 7 7 7 6 7 7 9 9 10 10 10 10 11 11
17 20 20 19 18 17 15 14 10 10 10 9 8 6 5 4 5 5 7 8 9 8 11 9 10 11 10 10 9 8 7 7 6 7 7 7 8 7 7 7 7 7 7
17 17 20 20 15 17 15 11 11 12 12 11 11 9 6 6 5 6 6 8 9 8 10 8 9 11 11 10 9 9 8 7 7 7 8 7 7 7 7 8 7 6 5
15 16 17 17 16 17 16 16 12 12 14 14 12 11 8 6 5 6 6 7 8 8 10 8 9 10 11 12 11 10 10 10 10 10 10 10 10 9 9 8 7 7 9
9 13 14 16 18 18 17 13 8 11 12 12 11 10 9 8 7 7 5 7 7 7 9 9 8 9 6 10 10 9 10 11 13 14 13 13 12 12 11 12 11 9 9
10 12 14 17 20 18 18 16 6 8 9 10 11 11 11 9 8 8 7 6 7 6 7 9 10 7 7 11 9 7 5 10 15 17 17 17 16 14 15 15 15 14 13
11 13 15 20 21 20 19 16 10 8 11 13 15 14 12 10 10 9 10 9 7 6 6 7 8 8 9 9 12 7 3 5 3 10 18 18 17 16 17 17 18 18 18
8 10 14 20 21 19 20 17 16 12 10 10 8 9 11 11 10 10 10 11 9 6 7 7 8 8 8 10 8 12 8 3 4 3 6 12 17 20 19 19 18 21 20
8 12 14 16 19 20 20 16 14 11 9 7 6 7 9 11 12 11 11 12 12 10 9 9 9 11 9 9 12 7 10 10 8 8 5 6 8 13 16 16 17 16 17
8 10 13 17 18 18 16 15 15 11 8 6 4 5 6 7 8 12 11 13 13 13 12 10 9 10 11 10 10 12 12 9 11 10 8 8 7 6 9 10 10 12 14
Wind_Direction
156 151 148 141 139 128 123 122 118 113 108 99 96 95 90 83 76 67 62 60 57 60 64 66 71 76 87 105 126 127 137 137 131 126 120 110 102 96 84 77 71 71 72
149 147 145 143 136 129 122 121 118 108 102 98 96 90 84 80 73 67 62 57 53 54 57 59 59 51 62 94 125 130 141 145 142 132 125 111 106 97 92 84 82 77 79
143 144 144 146 138 129 128 126 118 114 111 105 98 94 90 82 73 69 61 60 56 55 54 49 47 47 58 79 101 102 128 146 141 131 122 110 103 105 100 92 85 81 82
144 147 149 149 138 133 128 124 114 114 112 107 99 96 92 89 86 79 69 61 57 58 56 52 51 62 63 89 95 97 102 129 138 125 111 103 93 103 96 96 95 87 79
150 150 150 147 139 134 132 127 114 114 111 103 98 92 89 90 89 83 75 69 68 69 71 69 65 82 88 98 99 91 99 107 114 104 99 96 88 99 103 98 91 95 103
147 145 152 145 137 138 135 127 120 120 111 102 95 89 87 91 89 84 80 77 71 67 68 72 84 89 97 101 98 98 102 104 91 89 86 82 82 104 100 92 98 102 100
147 143 146 144 136 143 129 124 122 115 108 103 95 90 89 91 94 92 86 78 71 67 62 74 101 100 103 98 94 92 93 91 83 81 81 80 85 88 90 96 102 102 100
143 141 146 147 140 147 128 127 124 118 112 104 96 95 96 102 102 92 82 75 68 80 70 89 107 100 95 94 90 86 84 80 72 76 79 76 87 89 89 88 96 97 92
147 146 148 150 148 157 146 139 136 127 119 114 100 99 99 104 104 94 82 67 65 94 90 102 104 103 98 93 80 75 66 75 69 77 78 84 96 89 88 81 77 80 81
155 155 156 156 158 155 152 148 146 133 131 125 109 104 104 108 107 94 70 65 67 90 105 108 103 111 107 97 80 69 64 63 68 79 87 102 92 88 80 77 75 74 76
165 167 164 165 165 164 156 158 153 142 143 140 133 120 115 113 109 93 83 71 75 94 115 119 124 112 105 95 79 74 73 76 83 92 93 93 91 86 83 79 75 76 76
176 178 174 171 174 172 164 168 161 158 161 159 155 148 129 120 117 108 96 87 85 100 124 131 121 112 97 96 91 80 85 88 86 81 83 85 83 84 87 85 81 80 80
181 181 183 180 181 177 177 174 168 168 168 169 167 162 162 159 155 138 118 105 111 122 125 124 116 109 112 110 104 96 96 92 87 88 88 88 91 88 88 91 91 91 91
185 187 188 188 188 187 180 180 181 183 179 182 179 184 191 179 181 160 116 135 139 138 134 132 127 125 127 115 105 102 99 95 95 94 88 88 87 89 90 91 90 90 89
197 194 196 191 194 192 191 190 188 190 191 193 199 208 218 209 208 179 163 156 160 153 149 143 139 139 138 130 121 113 103 99 97 99 98 98 92 94 92 90 89 89 90
200 204 200 200 202 195 198 197 197 200 201 205 211 215 225 212 196 223 164 154 171 167 156 159 154 152 149 148 142 137 122 116 111 109 111 105 103 102 98 95 94 93 93
208 205 206 207 204 202 202 208 208 207 208 212 225 225 228 230 232 240 205 178 174 181 172 164 182 172 165 159 160 156 151 146 139 132 122 124 121 122 122 116 112 111 110
210 208 210 203 207 201 203 211 223 219 221 224 234 235 252 255 260 231 200 182 181 177 176 178 195 189 182 178 177 176 180 180 169 163 153 148 145 140 143 143 133 123 119
221 214 210 206 199 202 204 211 231 239 236 234 234 233 241 251 251 229 199 188 185 179 187 191 195 194 200 194 195 194 195 198 196 194 189 184 185 178 175 186 180 176 168
222 215 213 202 195 200 205 217 220 226 238 241 229 224 241 240 234 208 208 204 200 199 198 198 195 198 212 214 210 213 213 212 213 215 213 210 210 209 208 206 209 215 209
203 207 201 190 192 199 206 209 207 226 229 226 221 228 237 245 245 229 227 218 210 198 212 215 194 191 190 201 207 222 227 228 227 226 224 224 224 221 221 221 223 228 229
195 193 187 192 197 198 214 215 243 222 219 219 230 241 251 252 243 237 234 225 215 213 222 203 197 198 197 191 212 228 231 227 235 232 231 230 230 228 231 232 231 234 236
194 188 183 195 196 201 210 209 205 207 221 225 238 247 245 239 228 231 235 232 243 234 221 218 220 222 229 211 215 242 212 241 209 227 231 233 232 233 237 237 238 238 238
195 182 184 192 195 194 194 193 200 202 205 229 239 250 245 239 232 230 232 234 236 233 235 238 239 232 235 239 230 231 238 260 259 237 222 230 236 239 239 241 245 246 242
189 190 190 189 190 193 195 196 201 211 224 237 253 261 241 240 245 246 246 234 231 229 234 240 242 232 233 243 234 219 230 236 236 250 264 210 230 234 234 240 244 250 246
188 189 192 191 196 200 200 207 210 213 220 231 249 254 245 254 252 254 252 237 237 239 240 242 238 231 229 232 235 232 234 234 228 227 239 241 250 225 225 233 247 254 250